Location: Cedar Brake
(32.2526°N, 97.8459°W)
Time: 16:55:12
(UTC+00:00)

SL-4 R/B - Pass Details

Date: 22 April 2026
Orbit: 380 x 506 km, 51.6° (Epoch: 9 May)

Event Time Altitude Azimuth Distance (km) Brightness Sun altitude
Rises 02:40:58 0° 222° (SW) 2,501 5.5 -19.6°
Reaches altitude 10° 02:43:05 10° 222° (SW) 1,646 4.6 -19.9°
Maximum altitude 02:46:49 82° 135° (SE) 500 1.6 -20.6°
Enters shadow 02:47:19 65° 62° (ENE) 542 1.7 -20.7°
